Fort Stewart, GA

2:06 PM EST on February 20, 2017 (GMT -0500)
Wright Army Air Field

Weather History for KLHW - July, 2012

Change the Weather History Date:

Sunday, July 15, 2012

  Actual Average Record
Temperature  
Mean Temperature 77 °F -  
Max Temperature 86 °F 94 °F 110 °F (1986)
Min Temperature 70 °F 71 °F 64 °F (1974)
Cooling Degree Days 12    
Growing Degree Days 27 (Base 50)    
Moisture  
Dew Point 73 °F    
Average Humidity 86    
Maximum Humidity 100    
Minimum Humidity 66    
Precipitation  
Precipitation 0.59 in - - ()
Sea Level Pressure  
Sea Level Pressure 30.15 in    
Wind  
Wind Speed 3 mph (NE)    
Max Wind Speed 20 mph    
Max Gust Speed 26 mph    
Visibility 7 miles    
Events Rain , Thunderstorm    
Averages and records for this station are not official NWS values.
T = Trace of Precipitation, MM = Missing Value Source: NWS Daily Summary

Daily Weather History Graph

Daily Weather History Graph

Search for Another Location

Airport or City:

Trip Planner

Search our weather history database for the weather conditions in past years. The results will help you decide how hot, cold, wet, or windy it might be!

Date:

Astronomy

Jul. 15, 2012 Rise Set
Actual Time 6:31 AM EDT 8:32 PM EDT
Civil Twilight 6:03 AM EDT 9:00 PM EDT
Nautical Twilight 5:30 AM EDT 9:33 PM EDT
Astronomical Twilight 4:54 AM EDT 10:09 PM EDT
Moon 3:26 AM EDT (7/15) 5:48 PM EDT (7/15)
Length of Visible Light 14h 56m
Length of Day
14h 01m
Waning Crescent, 12% of the Moon is Illuminated
Jul 15
Waning Crescent
Jul 19
New
Jul 26
First Quarter
Aug 1
Full
Aug 9
Last Quarter

Hourly Weather History & Observations

Time (EDT) Temp. Heat Index Dew Point Humidity Pressure Visibility Wind Dir Wind Speed Gust Speed Precip Events Conditions
12:55 AM 73.4 °F - 71.1 °F 92% 30.16 in 10.0 mi Calm Calm - N/A   Clear
1:55 AM 72.1 °F - 70.7 °F 95% 30.14 in 10.0 mi Calm Calm - N/A   Clear
2:19 AM 71.6 °F - 71.6 °F 100% 30.14 in 9.0 mi Calm Calm - N/A   Mostly Cloudy
2:22 AM 71.6 °F - 71.6 °F 100% 30.13 in 9.0 mi Calm Calm - N/A   Scattered Clouds
2:24 AM 71.6 °F - 71.6 °F 100% 30.14 in 10.0 mi Calm Calm - N/A   Mostly Cloudy
2:28 AM 71.6 °F - 71.6 °F 100% 30.14 in 10.0 mi Calm Calm - N/A   Scattered Clouds
2:55 AM 72.5 °F - 70.9 °F 95% 30.13 in 9.0 mi Calm Calm - N/A   Clear
3:55 AM 71.1 °F - 69.8 °F 96% 30.11 in 10.0 mi Calm Calm - N/A   Clear
4:55 AM 70.5 °F - 69.6 °F 97% 30.11 in 10.0 mi Calm Calm - N/A   Clear
5:55 AM 70.3 °F - 69.4 °F 97% 30.12 in 10.0 mi Calm Calm - N/A   Clear
6:55 AM 70.5 °F - 70.0 °F 98% 30.14 in 10.0 mi Calm Calm - N/A   Clear
7:55 AM 73.8 °F - 72.3 °F 95% 30.14 in 10.0 mi Calm Calm - N/A   Clear
8:19 AM 75.2 °F - 73.4 °F 94% 30.15 in 9.0 mi Calm Calm - N/A   Mostly Cloudy
8:23 AM 75.2 °F - 73.4 °F 94% 30.15 in 10.0 mi Calm Calm - N/A   Mostly Cloudy
8:55 AM 80.6 °F 85.4 °F 73.4 °F 79% 30.16 in 6.0 mi NNE 4.6 mph - N/A   Haze
9:55 AM 83.1 °F 87.8 °F 71.1 °F 67% 30.17 in 10.0 mi East 4.6 mph - N/A   Scattered Clouds
10:41 AM 84.2 °F 89.6 °F 71.6 °F 66% 30.18 in 7.0 mi East 13.8 mph - N/A   Mostly Cloudy
10:43 AM 82.4 °F 88.2 °F 73.4 °F 74% 30.18 in 5.0 mi East 15.0 mph - N/A Rain Rain
10:45 AM 82.4 °F 88.2 °F 73.4 °F 74% 30.18 in 1.8 mi East 17.3 mph - N/A Rain Rain
10:46 AM 82.4 °F 89.5 °F 75.2 °F 79% 30.19 in 1.2 mi East 19.6 mph 26.5 mph N/A Rain Heavy Rain
10:47 AM 80.6 °F 86.2 °F 75.2 °F 84% 30.19 in 1.0 mi East 16.1 mph 26.5 mph N/A Rain Heavy Rain
10:48 AM 80.6 °F 86.2 °F 75.2 °F 84% 30.19 in 0.8 mi ENE 5.8 mph 26.5 mph N/A Rain Heavy Rain
10:49 AM 78.8 °F - 73.4 °F 83% 30.19 in 0.5 mi Calm Calm - N/A Rain Heavy Rain
10:52 AM 78.8 °F - 73.4 °F 83% 30.19 in 0.2 mi Calm Calm - N/A Rain Heavy Rain
10:53 AM 78.8 °F - 71.6 °F 78% 30.19 in 0.2 mi Calm Calm - N/A Rain Heavy Rain
10:54 AM 77.0 °F - 71.6 °F 83% 30.19 in 0.2 mi Calm Calm 26.5 mph N/A Rain Heavy Rain
10:55 AM 77.9 °F - 71.6 °F 81% 30.19 in 0.2 mi Calm Calm - 0.36 in Rain Heavy Rain
10:59 AM 78.8 °F - 71.6 °F 78% 30.19 in 0.8 mi North 5.8 mph - N/A Rain Light Rain
11:00 AM 78.8 °F - 71.6 °F 78% 30.18 in 1.0 mi North 6.9 mph - N/A Rain Light Rain
11:01 AM 78.8 °F - 73.4 °F 83% 30.18 in 1.5 mi North 4.6 mph - N/A Rain Light Rain
11:02 AM 78.8 °F - 73.4 °F 83% 30.18 in 2.5 mi NNW 3.5 mph - N/A Rain Rain
11:03 AM 78.8 °F - 73.4 °F 83% 30.18 in 4.0 mi Variable 3.5 mph - N/A Rain Rain
11:08 AM 78.8 °F - 75.2 °F 89% 30.18 in 9.0 mi WNW 4.6 mph - N/A Rain , Thunderstorm Light Thunderstorms and Rain
11:17 AM 78.8 °F - 75.2 °F 89% 30.18 in 10.0 mi West 8.1 mph - N/A Thunderstorm Thunderstorm
11:23 AM 78.8 °F - 75.2 °F 89% 30.18 in 10.0 mi WNW 5.8 mph - N/A   Scattered Clouds
11:41 AM 78.8 °F - 75.2 °F 89% 30.18 in 10.0 mi North 6.9 mph - N/A   Light Drizzle
11:55 AM 78.3 °F - 73.9 °F 87% 30.18 in 6.0 mi Variable 3.5 mph - 0.04 in Rain Light Rain
12:12 PM 78.8 °F - 73.4 °F 83% 30.17 in 10.0 mi Calm Calm - N/A   Mostly Cloudy
12:40 PM 80.6 °F 85.4 °F 73.4 °F 79% 30.16 in 10.0 mi West 3.5 mph - N/A Rain Light Rain
12:51 PM 82.4 °F 87.2 °F 71.6 °F 70% 30.16 in 10.0 mi NW 3.5 mph - N/A   Overcast
12:55 PM 82.8 °F 88.2 °F 72.5 °F 71% 30.16 in 10.0 mi Calm Calm - 0.01 in   Overcast
1:16 PM 80.6 °F 86.2 °F 75.2 °F 84% 30.17 in 9.0 mi East 13.8 mph 18.4 mph N/A   Light Drizzle
1:20 PM 78.8 °F - 75.2 °F 89% 30.17 in 2.5 mi ESE 11.5 mph - N/A Rain Heavy Rain
1:22 PM 78.8 °F - 75.2 °F 89% 30.16 in 1.8 mi SE 10.4 mph - N/A Rain Heavy Rain
1:28 PM 77.0 °F - 73.4 °F 89% 30.17 in 2.0 mi SE 8.1 mph - N/A Rain Rain
1:30 PM 77.0 °F - 73.4 °F 89% 30.17 in 3.0 mi ESE 8.1 mph - N/A Rain Heavy Rain
1:55 PM 76.1 °F - 73.6 °F 92% 30.16 in 10.0 mi Calm Calm - 0.17 in   Mostly Cloudy
1:56 PM 75.2 °F - 73.4 °F 94% 30.16 in 10.0 mi Calm Calm - N/A Thunderstorm Thunderstorm
2:03 PM 77.0 °F - 73.4 °F 89% 30.16 in 10.0 mi WNW 3.5 mph - N/A Rain , Thunderstorm Light Thunderstorms and Rain
2:33 PM 77.0 °F - 75.2 °F 94% 30.15 in 10.0 mi North 4.6 mph - N/A   Clear
2:55 PM 77.9 °F - 75.2 °F 91% 30.14 in 10.0 mi Calm Calm - 0.01 in   Scattered Clouds
3:55 PM 81.5 °F 86.9 °F 73.8 °F 77% 30.12 in 10.0 mi NE 8.1 mph - N/A   Scattered Clouds
4:55 PM 82.9 °F 89.4 °F 73.8 °F 74% 30.10 in 10.0 mi ENE 5.8 mph - N/A   Partly Cloudy
5:55 PM 82.6 °F 88.8 °F 74.1 °F 75% 30.09 in 10.0 mi ENE 5.8 mph - N/A   Partly Cloudy
6:55 PM 83.3 °F 89.3 °F 73.0 °F 71% 30.08 in 10.0 mi East 9.2 mph - N/A   Scattered Clouds
7:55 PM 81.0 °F 86.2 °F 73.8 °F 79% 30.09 in 10.0 mi East 3.5 mph - N/A   Clear
8:55 PM 78.6 °F - 75.4 °F 90% 30.10 in 10.0 mi Calm Calm - N/A   Clear
9:55 PM 76.3 °F - 74.8 °F 95% 30.10 in 10.0 mi Calm Calm - N/A   Clear
10:55 PM 75.6 °F - 74.5 °F 96% 30.12 in 10.0 mi Calm Calm - N/A   Clear
11:55 PM 74.8 °F - 73.9 °F 97% 30.11 in 10.0 mi Calm Calm - N/A   Clear